This is the latest recevied weather packets stored in our database for station/object W4FXD. If no packets are shown the sender has not sent any weather packets the latest 1 day(s).
| Time | Temp. | Humidity | Pressure | Rain* | Wind** | Luminosity | Snow |
|---|---|---|---|---|---|---|---|
| 1778015116 | 23.89° C | 47% | 1011.7 hPa | 0 mm | 0.45 m/s, 167° | 134 W/m² | - |
| 1778014814 | 23.89° C | 45% | 1011.7 hPa | 0 mm | 2.24 m/s, 175° | 106 W/m² | - |
| 1778014512 | 23.89° C | 46% | 1011.8 hPa | 0 mm | 0.89 m/s, 271° | 111 W/m² | - |
| 1778014208 | 23.33° C | 46% | 1012 hPa | 0 mm | 0.45 m/s, 117° | 187 W/m² | - |
| 1778013906 | 23.33° C | 45% | 1012.1 hPa | 0 mm | 2.24 m/s, 170° | 143 W/m² | - |
| 1778013603 | 23.89° C | 45% | 1012.3 hPa | 0 mm | 0.89 m/s, 209° | 114 W/m² | - |
| 1778013299 | 23.89° C | 44% | 1012.2 hPa | 0 mm | 0.89 m/s, 116° | 94 W/m² | - |
| 1778012996 | 23.89° C | 46% | 1012.1 hPa | 0 mm | 0.45 m/s, 126° | 117 W/m² | - |
| 1778012693 | 23.89° C | 46% | 1012.1 hPa | 0 mm | 1.34 m/s, 266° | 117 W/m² | - |
| 1778012388 | 23.33° C | 45% | 1012.2 hPa | 0 mm | 0.45 m/s, 93° | 243 W/m² | - |
| 1778012086 | 23.33° C | 45% | 1012.6 hPa | 0 mm | 1.79 m/s, 186° | 208 W/m² | - |
| 1778011783 | 22.78° C | 47% | 1012.8 hPa | 0 mm | 0.89 m/s, 172° | 258 W/m² | - |
| 1778011481 | 22.78° C | 47% | 1012.3 hPa | 0 mm | 0.45 m/s, 293° | 265 W/m² | - |
| 1778011176 | 22.78° C | 49% | 1012.7 hPa | 0 mm | 0.45 m/s, 216° | 218 W/m² | - |
| 1778010874 | 22.78° C | 47% | 1012.3 hPa | 0 mm | 0.89 m/s, 177° | 271 W/m² | - |
| 1778010571 | 22.78° C | 47% | 1012.7 hPa | 0 mm | 2.24 m/s, 202° | 246 W/m² | - |
| 1778010269 | 22.78° C | 46% | 1012.4 hPa | 0 mm | 0.45 m/s, 174° | 193 W/m² | - |
| 1778009968 | 22.78° C | 48% | 1012.6 hPa | 0 mm | 0.45 m/s, 228° | 160 W/m² | - |
| 1778009666 | 22.78° C | 48% | 1012.7 hPa | 0 mm | 0.89 m/s, 198° | 209 W/m² | - |
| 1778009364 | 22.78° C | 48% | 1012.3 hPa | 0 mm | 0.45 m/s, 162° | 247 W/m² | - |
| 1778009062 | 22.78° C | 49% | 1012.6 hPa | 0 mm | 0 m/s | 235 W/m² | - |
| 1778008759 | 22.78° C | 47% | 1012.6 hPa | 0 mm | 0.45 m/s, 232° | 267 W/m² | - |
| 1778008458 | 22.78° C | 47% | 1012.9 hPa | 0 mm | 0.45 m/s, 27° | 281 W/m² | - |
| 1778008154 | 22.78° C | 46% | 1012.7 hPa | 0 mm | 1.34 m/s, 187° | 271 W/m² | - |
| 1778007850 | 22.78° C | 48% | 1012.8 hPa | 0 mm | 1.79 m/s, 195° | 304 W/m² | - |
* Rain latest hour (hover to see other rain measurements)
** Current wind speed in m/s (hover to see current wind gust speed)